Temperature
15 15 15 15 15 15 15 14 14 14 14 13 13 13 14 14 14 14 14 13 13 13 13 14 14 14 14 14 14 14 14 14 14 14 14 14 14 14
15 15 15 15 15 15 15 15 14 14 14 13 13 13 13 13 13 13 13 13 13 13 13 13 13 13 13 13 13 14 14 14 14 14 14 14 14 14
14 14 14 14 15 14 14 14 14 14 14 14 13 13 13 13 13 13 13 13 13 13 13 13 13 13 13 13 13 13 13 13 13 13 13 13 13 13
14 14 14 14 14 14 14 14 14 14 14 14 13 13 13 13 13 13 13 13 13 12 12 12 13 12 12 12 12 13 12 12 12 13 13 13 13 13
14 14 14 14 14 14 14 14 14 14 13 13 13 13 13 13 12 12 12 12 12 12 12 12 12 12 12 12 12 12 12 12 12 12 12 12 12 12
14 14 14 14 14 14 14 14 13 13 13 13 13 13 12 12 12 12 12 12 12 12 11 12 12 12 12 11 11 11 11 11 11 11 12 12 12 11
14 14 14 14 14 14 14 14 13 13 13 13 13 12 12 12 12 12 12 11 11 11 11 11 11 11 11 11 11 11 11 11 11 11 11 11 11 11
14 13 13 13 13 13 13 13 13 13 13 13 12 12 12 12 12 11 11 11 11 11 11 11 11 11 11 11 11 11 11 11 10 10 10 11 11 11
13 13 13 13 13 13 13 13 13 13 12 12 12 12 12 12 11 11 11 11 11 11 11 11 11 10 10 10 10 10 10 10 10 10 10 10 10 10
13 13 13 13 13 13 13 12 12 12 12 12 12 12 12 11 11 11 11 11 11 10 10 10 10 10 10 10 10 10 10 10 10 9 9 9 9 9
13 13 13 13 12 12 12 12 12 12 12 11 11 11 11 11 11 11 10 10 10 10 10 9 10 10 10 10 9 9 9 9 9 9 9 9 9 8
13 13 12 12 12 12 12 12 11 11 11 11 11 11 11 11 11 10 10 10 10 9 9 9 9 8 9 9 9 9 8 8 8 8 8 8 8 8
12 12 12 12 12 12 11 11 11 11 11 10 10 10 10 10 10 10 10 9 9 9 9 8 8 8 8 8 8 8 8 8 8 8 8 7 7 7
12 12 12 11 11 11 11 11 11 10 10 10 10 10 10 10 9 9 9 9 9 9 8 8 8 7 7 7 7 7 7 7 7 7 7 7 7 7
12 11 11 11 11 11 11 10 10 10 10 10 9 9 9 9 9 9 9 8 8 8 8 7 7 7 7 6 6 6 6 6 6 6 6 6 6 6
11 11 11 10 10 10 10 10 10 10 9 9 9 9 9 8 8 8 8 7 7 7 7 7 7 6 6 6 6 6 6 6 6 5 5 5 5 5
11 10 10 10 10 10 10 9 9 9 9 9 8 8 8 8 8 7 7 7 7 6 6 6 6 6 6 6 5 5 5 5 5 5 5 4 5 5
10 10 10 10 9 9 9 9 9 8 8 8 8 7 7 7 7 7 6 6 6 6 6 6 5 5 5 5 5 5 5 5 5 4 4 4 4 4
10 9 9 9 9 9 8 8 8 8 7 7 7 7 6 6 6 6 6 6 5 5 5 5 5 4 4 4 5 5 4 4 4 4 4 4 3 4
9 9 9 9 8 8 8 8 7 7 7 6 6 6 6 6 5 5 5 5 5 5 4 4 4 4 4 4 4 4 4 3 3 3 3 3 3 3
9 8 8 8 8 8 7 7 7 6 6 6 6 5 5 5 5 5 4 4 4 4 4 4 4 4 3 3 3 3 3 3 3 3 3 2 2 2
8 8 8 8 7 7 7 6 6 6 5 5 5 5 5 4 4 4 4 4 3 3 3 3 3 3 3 3 3 3 3 3 3 2 2 2 2 2
8 8 7 7 7 6 6 6 5 5 5 4 4 4 4 4 4 4 3 3 3 3 3 2 2 2 2 2 2 2 2 2 2 2 2 2 2 1
Wind_Speed
3 3 2 2 3 3 2 2 2 1 1 1 1 1 3 4 4 4 4 6 7 8 9 10 10 11 11 11 11 11 11 11 11 11 11 10 9 7
2 3 3 2 2 2 2 3 2 2 1 1 1 1 2 2 2 3 3 4 5 5 6 7 8 9 9 10 10 10 10 11 11 11 11 11 10 9
2 3 3 2 2 2 2 2 2 2 2 0 1 1 2 1 1 1 2 3 2 2 3 4 5 6 7 8 8 9 9 9 10 10 10 10 10 9
2 2 2 2 2 1 2 2 1 1 2 1 1 1 1 0 0 1 1 0 1 0 1 1 2 4 5 5 6 7 7 8 8 9 9 9 9 9
1 2 1 2 1 1 1 1 1 1 1 1 1 0 1 1 1 1 1 1 2 1 2 1 1 2 3 3 4 5 6 6 6 7 8 8 9 9
1 1 1 2 2 1 1 1 1 1 1 0 0 0 1 1 1 1 2 2 2 2 1 2 3 2 2 2 3 3 4 4 5 5 6 7 8 9
1 1 2 3 4 3 2 2 2 1 1 1 1 1 1 1 1 1 2 2 2 1 1 2 2 3 3 3 4 4 4 4 4 5 6 7 8 9
0 1 2 2 3 3 3 2 2 1 0 1 1 1 1 1 1 1 1 2 3 3 1 3 1 2 3 4 5 5 5 5 6 7 8 8 9 11
1 1 0 1 2 1 1 1 1 1 1 1 1 2 2 2 2 2 2 2 3 3 2 3 2 3 4 6 6 6 7 7 7 8 9 10 11 12
2 1 0 1 1 1 1 1 1 2 2 1 2 2 2 2 2 2 3 3 3 3 1 3 3 3 4 5 7 8 8 9 10 10 11 11 12 13
2 1 1 1 1 2 1 1 1 2 3 4 4 4 5 5 4 2 3 3 4 4 2 2 3 4 4 3 7 10 10 11 12 12 13 13 14 14
2 1 1 1 1 1 0 1 3 4 3 3 4 5 6 6 6 3 3 2 3 3 2 1 3 3 4 4 3 6 8 11 13 14 15 15 15 11
2 2 2 2 2 2 2 2 4 5 3 3 4 4 3 3 3 4 3 3 4 4 3 1 3 2 3 5 4 4 5 6 8 10 14 16 16 12
2 1 1 2 3 4 4 5 7 6 3 3 3 4 3 4 3 4 6 7 7 7 6 3 3 4 4 6 5 4 4 6 5 5 8 12 14 16
2 1 1 2 3 4 6 7 5 3 3 3 4 4 4 4 3 3 4 6 7 9 9 7 4 5 5 6 6 5 5 5 4 4 5 5 6 7
3 3 4 4 4 4 5 5 4 3 4 5 5 5 4 3 3 3 3 3 4 5 7 9 7 6 6 7 7 7 6 5 5 5 6 6 7 9
2 2 2 2 3 3 3 3 3 3 4 4 4 4 4 4 4 3 3 3 4 5 5 5 7 9 7 7 7 7 7 6 6 6 6 7 7 8
1 2 3 3 3 3 3 3 3 3 3 3 3 4 4 4 4 4 3 4 5 5 5 5 4 5 6 6 8 7 6 7 7 7 6 8 9 8
2 2 3 3 3 3 3 3 3 3 2 2 3 4 4 4 5 5 4 4 5 5 6 5 4 5 7 10 7 7 7 7 7 7 7 8 10 8
2 2 3 2 3 3 3 3 3 3 2 3 4 4 4 4 5 5 5 6 6 6 6 5 5 5 8 10 9 7 10 8 7 9 9 8 8 11
2 3 3 3 3 3 3 3 3 3 3 3 4 4 4 5 5 6 6 8 7 6 7 7 7 9 7 6 7 8 7 11 12 9 8 8 9 9
2 3 3 3 2 2 2 2 3 3 4 4 4 4 4 5 6 7 7 7 7 7 8 8 7 6 5 7 10 11 10 9 11 14 14 13 9 9
2 2 2 2 2 2 2 3 3 3 4 4 4 5 5 5 6 6 6 7 7 8 8 8 7 6 7 8 9 10 11 10 8 8 9 14 18 20
Wind_Direction
68 72 64 34 29 25 37 70 112 103 42 63 82 85 107 104 89 87 75 63 55 52 48 44 42 40 38 35 33 30 28 27 26 26 26 26 28 26
82 74 63 52 31 38 37 32 58 109 109 11 92 126 102 103 95 108 105 87 63 53 49 44 40 37 35 31 29 28 28 28 28 27 25 24 25 26
104 100 90 71 47 35 37 45 44 79 115 353 43 92 89 70 73 136 154 140 91 56 58 43 35 31 28 27 25 25 24 23 21 20 19 18 17 18
70 88 95 94 81 47 40 53 58 82 120 128 349 26 55 102 31 333 10 97 149 147 129 52 35 22 20 21 18 18 17 15 16 16 16 13 10 7
87 76 72 86 90 82 74 45 32 42 92 141 214 352 357 347 10 342 347 334 298 255 211 236 313 353 5 9 7 7 6 6 8 10 9 7 4 0
107 95 71 74 65 51 57 19 28 21 10 70 151 327 317 309 36 331 323 304 299 317 292 231 244 261 288 312 330 336 344 351 351 351 352 352 351 348
153 132 112 103 86 75 63 28 28 23 358 4 339 350 331 351 316 285 294 298 299 307 289 254 229 230 248 275 283 294 298 308 315 321 326 328 329 329
205 156 147 126 127 116 101 81 68 73 8 357 329 296 295 299 304 314 318 332 309 312 315 290 279 249 235 241 256 263 269 279 289 298 305 308 311 314
313 289 215 148 129 149 186 207 276 304 235 209 246 264 273 290 314 320 307 290 267 271 312 287 287 278 265 252 251 256 265 272 280 286 290 294 299 302
308 281 178 104 89 109 146 212 226 255 246 229 231 258 270 286 274 272 267 281 284 286 310 277 288 277 281 257 256 260 268 269 270 275 280 285 290 292
303 353 56 101 43 61 41 307 293 278 264 251 244 263 279 289 296 319 309 304 295 283 260 258 285 293 282 265 264 265 264 264 266 273 277 282 285 287
245 229 104 113 105 73 334 299 289 285 288 289 284 283 277 274 269 244 238 262 282 288 277 266 287 311 303 282 272 269 267 270 268 270 272 277 281 282
242 225 214 190 194 233 258 255 272 291 288 284 281 274 271 263 263 257 246 232 250 261 272 265 275 282 270 289 291 274 266 275 276 276 275 277 279 275
254 234 223 208 235 251 257 272 287 297 292 288 283 282 277 269 260 256 252 251 249 252 264 253 247 259 271 281 284 290 288 283 274 278 280 280 278 276
246 223 267 269 263 258 260 271 279 272 269 269 270 269 263 266 277 284 277 272 272 269 270 264 252 255 252 262 272 276 286 282 277 281 281 279 279 280
247 252 264 263 261 261 266 266 253 248 248 251 259 263 267 273 273 272 273 277 280 281 279 269 267 260 263 264 266 273 271 274 283 278 276 277 280 277
230 228 235 246 250 256 254 252 249 258 264 266 271 278 279 276 270 261 261 266 270 278 283 279 277 272 262 260 270 270 272 273 272 274 279 279 271 274
195 230 243 247 250 254 260 267 261 256 260 273 279 281 283 284 285 282 274 268 271 273 274 276 285 295 296 277 254 268 272 273 276 275 275 280 281 276
209 239 247 255 265 267 264 266 271 268 261 265 275 279 281 286 289 287 284 280 278 277 278 276 276 275 284 286 278 261 271 280 281 280 274 272 279 279
230 244 258 266 271 273 273 274 280 288 284 277 275 279 280 281 284 284 283 281 281 283 283 279 270 264 265 275 280 276 266 267 276 277 277 275 274 277
240 251 260 269 275 276 280 286 288 285 285 285 283 281 280 280 280 278 280 281 280 279 279 275 268 271 271 279 283 280 274 272 270 271 278 285 289 289
244 252 262 271 279 289 295 296 297 299 298 294 289 286 285 283 280 279 278 280 279 277 279 279 279 280 273 275 280 284 288 290 287 284 274 271 275 281
245 254 262 275 284 294 297 299 301 300 299 299 300 299 295 295 291 286 283 280 283 285 287 289 289 283 277 274 280 285 287 292 295 293 284 277 271 273
Height
1562 1563 1563 1563 1564 1564 1565 1565 1566 1565 1566 1566 1565 1565 1564 1563 1562 1561 1560 1559 1558 1557 1555 1554 1553 1551 1550 1549 1548 1547 1546 1545 1543 1542 1540 1538 1538 1538
1563 1563 1564 1564 1564 1564 1565 1565 1565 1566 1565 1566 1565 1565 1564 1563 1562 1561 1560 1560 1559 1557 1556 1554 1553 1552 1550 1549 1548 1547 1545 1544 1543 1541 1540 1538 1537 1537
1564 1564 1564 1564 1564 1564 1565 1565 1565 1566 1565 1566 1566 1565 1564 1563 1562 1561 1560 1559 1558 1557 1556 1555 1553 1552 1550 1549 1547 1546 1545 1543 1542 1541 1540 1538 1537 1537
1564 1564 1564 1565 1565 1565 1565 1565 1565 1565 1565 1565 1565 1564 1564 1563 1562 1561 1560 1559 1558 1556 1555 1554 1553 1551 1550 1548 1547 1545 1544 1542 1541 1540 1538 1537 1536 1536
1564 1564 1564 1565 1564 1564 1564 1564 1565 1565 1565 1564 1564 1564 1563 1562 1561 1560 1559 1558 1557 1555 1554 1553 1552 1551 1549 1548 1546 1544 1543 1541 1540 1538 1537 1536 1535 1534
1563 1564 1564 1564 1564 1564 1564 1564 1564 1564 1564 1563 1563 1562 1562 1561 1560 1559 1557 1557 1556 1555 1553 1552 1550 1549 1548 1546 1545 1543 1541 1540 1538 1536 1535 1534 1533 1531
1563 1563 1563 1563 1563 1563 1563 1563 1563 1562 1562 1562 1561 1561 1560 1559 1558 1557 1556 1555 1554 1553 1551 1550 1548 1547 1546 1544 1543 1541 1540 1538 1536 1535 1533 1531 1530 1528
1561 1562 1562 1562 1562 1561 1561 1561 1561 1561 1560 1560 1559 1559 1558 1557 1556 1555 1554 1553 1551 1551 1549 1548 1547 1545 1544 1542 1541 1539 1537 1536 1534 1532 1530 1528 1527 1525
1560 1560 1560 1560 1560 1560 1559 1559 1559 1559 1559 1558 1557 1556 1556 1555 1554 1553 1551 1550 1549 1548 1547 1544 1544 1542 1541 1539 1538 1536 1535 1533 1531 1529 1527 1525 1523 1521
1558 1558 1558 1558 1558 1557 1557 1557 1556 1556 1556 1555 1555 1554 1553 1552 1551 1550 1549 1547 1546 1545 1544 1541 1540 1538 1537 1536 1534 1533 1531 1529 1527 1525 1523 1521 1520 1518
1556 1556 1556 1555 1555 1555 1555 1554 1554 1553 1553 1552 1552 1551 1550 1549 1548 1547 1545 1544 1541 1540 1540 1538 1536 1534 1533 1531 1530 1529 1527 1525 1523 1521 1519 1517 1515 1513
1553 1553 1553 1553 1553 1552 1552 1551 1550 1550 1549 1549 1548 1547 1546 1545 1544 1543 1542 1540 1538 1536 1535 1534 1532 1530 1527 1526 1525 1524 1522 1520 1518 1517 1515 1513 1511 1508
1549 1549 1549 1549 1549 1549 1548 1548 1547 1546 1546 1545 1543 1542 1542 1541 1540 1539 1538 1537 1535 1533 1532 1530 1528 1526 1524 1521 1520 1519 1517 1515 1513 1511 1509 1507 1505 1503
1546 1546 1546 1546 1545 1545 1545 1544 1543 1543 1542 1540 1539 1538 1537 1536 1535 1534 1533 1532 1531 1529 1528 1526 1524 1522 1519 1516 1514 1513 1512 1510 1508 1505 1503 1501 1499 1497
1543 1543 1543 1542 1542 1541 1541 1540 1540 1539 1537 1536 1535 1534 1533 1532 1531 1530 1528 1527 1525 1524 1523 1521 1519 1517 1515 1512 1509 1507 1505 1503 1502 1500 1497 1495 1493 1490
1539 1539 1539 1538 1538 1537 1537 1536 1535 1535 1533 1532 1531 1530 1529 1527 1526 1525 1523 1521 1519 1517 1517 1516 1514 1512 1509 1506 1504 1500 1499 1497 1495 1493 1490 1488 1486 1484
1535 1535 1534 1534 1533 1533 1532 1532 1531 1530 1529 1528 1526 1525 1524 1522 1521 1519 1518 1516 1514 1511 1509 1509 1507 1505 1503 1501 1497 1495 1493 1490 1488 1486 1483 1479 1477 1476
1532 1531 1530 1530 1529 1529 1528 1527 1527 1526 1524 1523 1522 1520 1518 1517 1515 1514 1512 1510 1508 1506 1504 1502 1501 1498 1496 1494 1493 1489 1486 1484 1481 1479 1476 1472 1468 1467
1528 1527 1527 1526 1526 1525 1524 1523 1522 1521 1520 1518 1517 1515 1513 1511 1510 1508 1506 1504 1502 1500 1498 1497 1495 1492 1489 1485 1483 1484 1481 1477 1474 1471 1469 1465 1461 1458
1524 1523 1523 1522 1522 1521 1520 1519 1518 1516 1515 1514 1512 1510 1508 1506 1504 1502 1500 1498 1496 1494 1491 1490 1488 1486 1483 1480 1476 1474 1474 1471 1467 1463 1460 1457 1453 1450
1520 1519 1519 1518 1517 1516 1515 1514 1513 1511 1510 1508 1507 1505 1503 1501 1498 1496 1494 1492 1490 1487 1485 1483 1481 1480 1477 1474 1469 1465 1464 1463 1461 1457 1453 1449 1444 1440
1515 1515 1514 1514 1513 1512 1510 1509 1508 1506 1504 1503 1501 1499 1497 1495 1492 1490 1488 1485 1483 1480 1478 1475 1474 1472 1470 1466 1462 1458 1454 1453 1451 1449 1446 1443 1439 1433
1511 1510 1509 1508 1508 1506 1505 1504 1502 1500 1499 1497 1495 1493 1491 1488 1486 1483 1481 1479 1476 1473 1471 1468 1466 1464 1461 1459 1455 1451 1447 1444 1441 1438 1436 1434 1432 1428